Date String (YYYY-MM-DD hh:mm:ss) UTC,Instrument flags,Ambient pressure (hPa),Sample flow (lpm),Bypass flow (lpm),Sample temperature (°C),Ambient temperature (°C),ASC tube jacket temperature (°C),LED temperature (°C),Box temperature (°C),Sample RH (%),Span deviation,Mass concentration (μg/m³),Mass concentration (μg/m³),Mass concentration (μg/m³)
DateTimeUTC,F1_M11,P_M11,Q1_M11,Q2_M11,T1_M11,T2_M11,T3_M11,T4_M11,T5_M11,U1_M11,ZSPAN_M11,X0_M11,X2_M11,X1_M11
2021-09-10 22:00:00,,0827.5,4.98,0.00,28.8,26.3,00.0,37.7,30.4,11.5,-000.1,0033.66,0015.76,0014.23
2021-09-10 22:01:00,,0827.5,5.02,0.00,28.7,25.7,00.0,37.7,30.2,11.8,-000.5,0034.99,0015.83,0014.28
2021-09-10 22:02:00,,0827.6,4.98,0.00,28.7,26.1,00.0,37.7,30.3,11.5,-000.4,0035.73,0015.82,0014.28
2021-09-10 22:03:00,,0827.5,5.01,0.00,28.7,26.5,00.0,37.7,30.4,11.6,-000.6,0035.41,0015.79,0014.27
2021-09-10 22:04:00,,0827.5,4.98,0.00,28.7,26.9,00.0,37.7,30.5,11.5,-000.6,0034.46,0015.77,0014.27
2021-09-10 22:05:00,,0827.5,5.01,0.00,28.8,27.3,00.0,37.7,30.7,11.4,-001.0,0032.77,0015.73,0014.26
2021-09-10 22:06:00,,0827.6,5.00,0.00,28.9,27.3,00.0,37.7,30.7,11.7,-000.9,0031.95,0015.73,0014.27
2021-09-10 22:07:00,,0827.5,5.00,0.00,28.8,26.1,00.0,37.7,30.3,11.4,-001.0,0031.94,0015.76,0014.26
2021-09-10 22:08:00,,0827.5,5.00,0.00,28.7,25.6,00.0,37.7,30.1,11.5,-001.3,0031.29,0015.80,0014.29
2021-09-10 22:09:00,,0827.5,5.00,0.00,28.6,26.1,00.0,37.7,30.2,11.7,-001.3,0031.82,0015.83,0014.31
2021-09-10 22:10:00,,0827.6,4.99,0.00,28.7,26.5,00.0,37.7,30.4,11.6,-001.3,0030.40,0015.81,0014.32
2021-09-10 22:11:00,,0827.5,5.01,0.00,28.7,26.9,00.0,37.7,30.5,11.6,-000.9,0030.30,0015.80,0014.31
2021-09-10 22:12:00,,0827.5,5.02,0.00,28.8,27.2,00.0,37.7,30.7,11.5,-000.5,0029.49,0015.75,0014.28
2021-09-10 22:13:00,,0827.5,5.00,0.00,28.8,27.3,00.0,37.7,30.7,11.5,-000.3,0028.30,0015.81,0014.29
2021-09-10 22:14:00,,0827.5,5.00,0.00,28.8,26.0,00.0,37.7,30.3,11.5,0000.1,0028.53,0015.85,0014.29
2021-09-10 22:15:00,,0827.5,5.00,0.00,28.7,25.7,00.0,37.7,30.2,11.8,0000.2,0029.06,0015.83,0014.26
2021-09-10 22:16:00,,0827.5,4.99,0.00,28.7,26.2,00.0,37.7,30.3,12.2,0000.3,0028.94,0015.85,0014.24
2021-09-10 22:17:00,,0827.5,5.01,0.00,28.7,26.6,00.0,37.7,30.4,11.8,0000.1,0029.23,0015.85,0014.22
2021-09-10 22:18:00,,0827.6,4.99,0.00,28.7,27.0,00.0,37.7,30.5,11.8,0000.2,0029.59,0015.79,0014.21
2021-09-10 22:19:00,,0827.5,4.99,0.00,28.8,27.3,00.0,37.7,30.7,11.4,0000.8,0029.72,0015.72,0014.16
2021-09-10 22:20:00,,0827.5,5.02,0.00,28.8,27.2,00.0,37.7,30.6,11.4,0000.9,0029.77,0015.66,0014.11
2021-09-10 22:21:00,,0827.5,5.00,0.00,28.7,25.9,00.0,37.7,30.2,11.3,0001.0,0029.69,0015.60,0014.07
2021-09-10 22:22:00,,0827.4,5.01,0.00,28.6,25.6,00.0,37.7,30.1,11.5,0001.2,0029.32,0015.56,0014.03
2021-09-10 22:23:00,,0827.4,4.99,0.00,28.6,26.1,00.0,37.7,30.3,11.7,0001.1,0029.68,0015.56,0013.98
2021-09-10 22:24:00,,0827.4,5.01,0.00,28.6,26.5,00.0,37.7,30.4,12.2,0001.0,0029.73,0015.52,0013.94
2021-09-10 22:25:00,,0827.4,4.99,0.00,28.7,26.9,00.0,37.7,30.5,11.7,0000.6,0030.22,0015.48,0013.91
2021-09-10 22:26:00,,0827.4,5.01,0.00,28.8,27.3,00.0,37.7,30.7,11.2,0000.2,0030.47,0015.47,0013.90
2021-09-10 22:27:00,,0827.4,5.00,0.00,28.8,27.6,00.0,37.7,30.8,10.8,0000.5,0030.70,0015.39,0013.86
2021-09-10 22:28:00,,0827.4,5.01,0.00,28.8,26.6,00.0,37.7,30.5,11.0,0000.7,0030.75,0015.34,0013.84
2021-09-10 22:29:00,,0827.4,5.00,0.00,28.7,25.6,00.0,37.7,30.1,11.6,0001.0,0032.72,0015.36,0013.82
2021-09-10 22:30:00,,0827.4,5.00,0.00,28.6,25.9,00.0,37.7,30.2,12.1,0000.9,0032.07,0015.32,0013.80
2021-09-10 22:31:00,,0827.4,4.99,0.00,28.7,26.4,00.0,37.7,30.4,12.3,0000.9,0032.20,0015.35,0013.83
2021-09-10 22:32:00,,0827.4,5.00,0.00,28.7,26.8,00.0,37.7,30.5,12.3,0000.8,0033.99,0015.37,0013.87
2021-09-10 22:33:00,,0827.5,5.00,0.00,28.8,27.2,00.0,37.7,30.6,12.6,0000.5,0036.09,0015.43,0013.90
2021-09-10 22:34:00,,0827.5,5.00,0.00,28.8,27.4,00.0,37.7,30.7,12.9,0000.2,0036.04,0015.45,0013.94
2021-09-10 22:35:00,,0827.5,5.00,0.00,28.8,26.4,00.0,37.7,30.4,12.6,-000.1,0037.60,0015.53,0013.99
2021-09-10 22:36:00,,0827.6,5.00,0.00,28.7,25.5,00.0,37.7,30.1,12.2,0000.5,0037.92,0015.56,0014.02
2021-09-10 22:37:00,,0827.6,4.99,0.00,28.6,25.9,00.0,37.7,30.2,12.6,0000.4,0037.84,0015.55,0014.03
2021-09-10 22:38:00,,0827.5,5.01,0.00,28.6,26.3,00.0,37.7,30.3,12.7,0000.8,0037.41,0015.52,0014.01
2021-09-10 22:39:00,,0827.5,5.00,0.00,28.7,26.7,00.0,37.7,30.4,13.1,0000.8,0039.69,0015.60,0014.01
2021-09-10 22:40:00,,0827.5,5.00,0.00,28.7,27.1,00.0,37.7,30.6,13.3,0000.6,0039.58,0015.67,0014.02
2021-09-10 22:41:00,,0827.5,4.99,0.00,28.8,27.5,00.0,37.7,30.7,12.9,0000.3,0039.11,0015.66,0014.03
2021-09-10 22:42:00,,0827.5,4.99,0.00,28.9,27.2,00.0,37.7,30.6,12.7,0000.0,0039.27,0015.66,0014.02
2021-09-10 22:43:00,,0827.5,5.00,0.00,28.8,25.8,00.0,37.7,30.3,13.1,0000.1,0039.51,0015.69,0014.00
2021-09-10 22:44:00,,0827.5,5.00,0.00,28.7,25.7,00.0,37.7,30.2,13.3,0000.2,0039.05,0015.81,0013.99
2021-09-10 22:45:00,,0827.5,5.01,0.00,28.7,26.2,00.0,37.7,30.3,13.3,0000.8,0039.70,0015.79,0013.98
2021-09-10 22:46:00,,0827.6,4.99,0.00,28.7,26.6,00.0,37.7,30.4,12.9,0001.8,0039.30,0015.73,0013.95
2021-09-10 22:47:00,,0827.5,5.00,0.00,28.7,27.0,00.0,37.7,30.5,12.7,0001.5,0038.51,0015.65,0013.91
2021-09-10 22:48:00,,0827.6,5.01,0.00,28.8,27.4,00.0,37.7,30.7,12.7,0001.9,0038.29,0015.67,0013.88
2021-09-10 22:49:00,,0827.6,5.00,0.00,28.9,27.5,00.0,37.7,30.8,12.8,0001.7,0038.16,0015.73,0013.90
2021-09-10 22:50:00,,0827.5,5.00,0.00,28.8,26.4,00.0,37.7,30.5,12.7,0001.9,0036.28,0015.70,0013.93
2021-09-10 22:51:00,,0827.5,5.00,0.00,28.7,25.5,00.0,37.7,30.2,12.5,0001.9,0035.51,0015.67,0013.91
2021-09-10 22:52:00,,0827.5,5.00,0.00,28.7,25.9,00.0,37.7,30.2,12.7,0002.1,0034.43,0015.78,0013.95
2021-09-10 22:53:00,,0827.5,4.99,0.00,28.7,26.4,00.0,37.7,30.4,12.4,0002.6,0034.30,0015.84,0013.94
2021-09-10 22:54:00,,0827.5,4.99,0.00,28.7,26.8,00.0,37.7,30.5,12.2,0002.8,0032.48,0015.76,0013.89
2021-09-10 22:55:00,,0827.5,5.01,0.00,28.8,27.2,00.0,37.7,30.6,12.6,0003.1,0030.54,0015.64,0013.86
2021-09-10 22:56:00,,0827.6,4.99,0.00,28.8,27.5,00.0,37.7,30.7,12.9,0002.5,0029.97,0015.70,0013.86
2021-09-10 22:57:00,,0827.5,5.01,0.00,28.9,27.1,00.0,37.8,30.6,12.5,0001.8,0029.33,0015.72,0013.86
2021-09-10 22:58:00,,0827.5,5.00,0.00,28.8,25.7,00.0,37.7,30.2,12.9,0001.9,0029.51,0015.76,0013.85
2021-09-10 22:59:00,,0827.5,5.00,0.00,28.7,25.7,00.0,37.7,30.1,13.1,0001.1,0028.26,0015.69,0013.83
